EHI
11 12 13 15 15 12 10 10 9 6 4 4 3 4 6 9 8 6 5 4 2 0 0 0 0 0 0 0 0 0 1 1 1 0 0 0 0 0
12 13 15 16 15 14 13 13 12 9 6 4 3 5 9 10 9 8 8 6 3 1 0 0 0 0 0 0 0 0 0 0 0 0 0 0 0 0
13 14 16 16 16 16 15 14 13 11 7 4 2 6 10 10 10 10 9 7 5 2 0 0 0 0 0 0 0 0 0 0 0 0 0 0 0 0
13 14 15 16 17 17 15 14 13 12 9 3 2 5 7 7 8 9 8 7 6 4 1 0 0 0 0 0 0 0 0 0 0 0 0 0 0 0
15 15 15 16 17 17 15 13 13 12 9 4 2 4 5 5 6 7 6 6 5 4 3 1 0 0 0 0 0 0 0 0 0 0 0 0 0 0
14 14 15 16 16 15 14 11 10 9 6 3 1 3 4 5 6 6 6 6 5 3 4 4 2 2 1 0 0 0 0 0 0 0 0 0 0 0
11 11 12 13 13 11 9 7 7 6 4 2 1 2 4 6 6 6 6 6 5 4 5 5 5 5 4 2 1 0 0 0 0 0 0 0 0 0
10 10 10 10 10 7 4 3 3 4 3 2 2 3 4 5 6 6 6 6 6 6 6 4 4 5 5 4 2 1 0 0 0 0 0 0 0 0
10 10 8 8 8 6 4 2 2 2 2 3 3 3 4 4 4 5 6 6 6 6 6 4 3 3 4 4 3 1 0 0 0 0 0 0 0 0
9 8 7 7 6 6 5 5 4 2 2 2 2 2 2 3 3 4 5 6 6 6 5 3 3 3 2 3 2 1 0 0 0 0 0 0 0 0
9 7 6 6 4 4 5 6 4 2 1 1 1 1 1 1 2 2 3 4 4 5 4 3 2 3 3 3 2 0 0 0 0 0 0 0 0 0
8 6 5 4 2 2 4 5 3 2 0 0 0 0 0 0 0 1 1 2 4 4 3 2 2 3 3 2 2 1 0 0 0 0 0 0 0 0
6 5 3 2 1 1 2 3 2 1 0 0 0 0 0 0 0 0 1 3 4 4 3 3 2 3 3 1 1 1 1 1 1 1 1 0 0 0
4 3 2 1 0 0 0 1 1 0 0 0 0 0 0 0 0 1 2 3 4 3 3 3 3 3 3 1 1 1 2 3 4 5 5 3 1 0
3 3 2 1 0 0 0 0 0 0 0 0 0 0 0 0 1 2 3 3 3 3 3 3 3 3 2 1 1 2 3 4 7 9 9 6 2 0
3 3 2 1 1 0 0 0 0 0 0 0 0 0 0 0 1 2 3 3 3 3 2 3 3 3 1 1 1 2 3 4 6 9 8 5 2 1
3 3 3 2 2 1 0 0 0 0 0 0 0 1 1 1 1 2 3 3 3 3 1 1 3 2 1 0 1 2 2 3 4 6 6 3 1 0
3 3 4 4 4 4 2 1 1 1 1 0 0 1 1 1 1 3 3 3 2 2 1 1 2 2 1 0 0 1 2 3 3 4 5 3 1 1
3 4 6 7 7 6 4 2 2 2 2 1 1 0 0 1 1 3 3 2 1 1 1 1 1 2 1 0 0 1 3 4 4 3 2 1 1 1
3 4 6 8 9 7 5 3 3 4 4 3 3 2 1 1 1 1 1 1 0 0 1 1 1 1 1 1 1 1 2 4 4 2 1 0 0 1
3 3 4 7 7 6 6 5 5 6 6 6 5 5 3 2 1 1 1 1 0 0 0 0 0 1 2 2 2 3 3 3 2 1 0 0 0 0
2 2 2 3 3 4 5 6 6 6 6 6 6 6 5 4 2 1 2 1 0 0 0 0 0 1 2 1 1 2 2 2 1 0 0 0 0 0
1 1 1 1 1 2 4 4 4 5 6 6 6 6 6 5 3 1 1 1 0 0 0 0 0 1 1 0 0 0 1 2 2 1 0 0 0 0
Wind_Speed
3 3 3 3 3 3 3 4 5 5 4 2 3 2 2 2 2 3 4 1 2 3 3 4 4 5 5 5 5 4 4 4 5 6 6 7 10 11
3 3 4 3 3 3 4 4 4 5 5 4 3 3 3 4 2 3 4 2 4 4 3 2 3 3 3 4 3 3 3 3 3 4 4 5 6 7
3 3 4 4 4 3 3 4 4 4 5 4 4 3 3 5 5 5 5 4 2 5 3 2 2 2 3 2 3 2 3 3 3 3 4 4 4 5
3 4 4 3 4 4 3 4 3 3 4 5 5 4 4 5 5 6 5 4 4 3 5 4 3 3 3 3 2 2 2 3 3 3 3 3 4 5
4 4 4 4 4 3 4 4 3 4 4 5 5 3 4 4 5 5 5 4 5 2 5 6 5 4 4 3 3 2 2 2 2 2 2 3 3 4
5 4 5 5 5 4 4 4 4 4 4 5 5 4 4 4 4 5 4 3 4 4 2 3 4 7 6 4 3 2 2 2 2 2 2 3 3 3
5 5 5 4 3 4 4 4 4 4 5 5 5 4 4 4 4 4 5 4 4 3 3 3 2 3 3 5 4 3 3 2 2 2 2 2 3 3
6 5 5 4 4 5 4 5 5 5 5 5 5 5 5 5 4 5 5 5 4 2 4 4 3 3 3 2 2 3 3 3 3 3 3 2 2 3
6 5 5 3 3 4 4 6 6 7 7 7 7 7 7 6 6 6 5 6 6 5 4 5 4 4 3 1 4 4 4 4 4 4 3 3 3 3
5 5 5 5 4 4 5 5 6 6 6 7 6 7 6 6 6 7 7 7 6 4 4 5 4 4 4 2 5 5 5 5 5 5 4 4 4 4
5 5 5 5 1 2 5 6 6 6 5 5 6 7 7 7 7 6 6 6 6 4 2 4 5 5 4 4 3 7 7 6 6 6 5 5 5 5
4 4 3 3 1 2 5 5 6 6 6 5 6 7 8 8 8 7 6 6 6 5 2 4 5 4 4 3 3 2 3 5 7 7 6 6 6 5
4 3 1 2 2 4 6 6 6 7 7 6 6 6 5 4 5 4 4 5 6 6 4 4 5 5 5 5 4 4 3 3 3 4 6 7 7 6
4 3 1 2 4 5 5 5 6 7 6 5 4 4 4 4 4 4 5 6 6 7 6 6 6 5 6 6 5 3 3 3 3 3 3 4 6 7
4 3 3 4 5 5 6 6 6 5 5 5 4 4 4 4 4 4 4 5 6 6 5 5 6 6 6 6 6 4 4 3 3 3 3 3 3 4
4 3 5 6 6 4 4 4 4 4 5 5 4 4 3 3 3 4 4 4 4 4 4 5 6 7 6 7 6 5 4 3 3 3 3 4 3 4
4 3 2 2 2 2 3 3 4 4 4 4 4 4 4 4 4 4 4 4 5 5 4 3 4 5 7 7 6 5 5 4 3 3 4 4 4 4
4 3 2 3 3 3 3 3 4 4 4 4 5 4 4 4 4 4 4 4 5 5 5 4 3 4 5 4 5 6 5 4 3 3 4 5 5 3
3 2 3 3 3 3 3 4 4 3 4 5 5 4 4 4 5 5 5 5 5 5 5 5 4 4 5 5 3 4 5 4 4 3 3 4 4 3
3 3 3 3 3 3 3 4 4 3 3 4 5 4 4 4 4 5 5 5 6 6 5 5 5 4 5 6 5 5 5 5 4 4 4 3 3 2
3 3 3 3 3 3 4 4 4 4 4 5 4 4 4 4 5 5 5 5 6 6 6 6 5 5 5 5 5 5 3 2 3 4 4 3 3 3
3 3 3 4 4 4 4 4 4 4 4 4 4 4 4 4 5 6 6 6 6 6 7 6 5 5 5 5 6 5 4 2 2 3 2 2 3 4
4 4 4 4 3 3 3 4 4 4 4 4 4 4 4 4 4 5 5 5 5 6 6 5 5 5 5 5 5 4 4 3 2 2 1 1 3 4
Wind_Direction
274 266 269 282 284 285 281 278 283 287 285 280 280 301 294 302 344 290 293 138 211 251 265 275 275 266 257 253 251 249 258 265 258 253 251 246 240 238
273 287 287 286 288 282 281 280 279 279 285 301 296 304 327 310 313 295 288 223 211 216 226 252 267 257 254 253 245 237 251 264 264 255 246 246 242 237
272 273 276 283 282 280 275 271 270 275 277 286 292 307 311 302 310 299 284 276 243 169 186 226 257 262 255 244 240 236 251 260 264 262 255 247 238 231
270 280 285 280 269 276 279 278 281 280 275 282 286 288 290 288 291 289 290 286 286 162 176 206 231 247 235 231 240 241 248 258 265 268 262 257 247 237
268 273 282 289 282 278 276 280 281 273 271 272 278 286 285 293 295 288 289 287 284 232 191 196 200 214 223 222 231 235 242 248 256 266 272 272 261 245
272 273 275 280 283 284 275 274 275 275 267 268 277 284 287 298 290 291 288 280 279 286 291 259 202 201 207 203 196 212 234 238 244 246 249 257 263 261
270 269 269 279 303 293 296 295 285 277 279 282 285 288 296 304 298 301 300 295 282 288 293 284 256 251 221 196 187 188 211 229 239 243 239 236 244 251
270 268 261 242 230 229 259 277 287 283 290 292 292 297 298 297 304 298 302 299 297 309 299 292 284 282 279 275 140 165 203 228 236 234 232 233 236 243
274 271 272 270 253 259 237 231 246 258 264 276 285 292 298 303 300 290 288 294 297 301 294 291 285 279 276 240 150 178 206 222 229 226 228 233 238 244
266 264 267 276 281 290 275 268 265 257 251 253 271 280 289 299 291 281 280 276 273 269 273 282 289 286 280 259 171 185 204 216 223 222 224 226 235 244
263 263 266 264 320 293 270 273 278 276 248 235 255 270 280 279 282 284 280 278 280 281 275 283 292 295 285 273 210 189 204 212 218 219 219 219 228 235
253 251 243 275 301 270 265 273 276 285 294 282 258 252 255 249 235 250 272 278 284 283 287 279 282 292 288 281 283 255 229 215 215 215 214 219 225 234
273 269 247 170 244 255 266 271 282 289 283 278 274 270 265 261 251 251 266 275 281 284 292 283 284 283 280 287 284 276 268 262 230 216 211 215 217 227
282 287 309 172 235 247 258 278 281 275 271 275 278 279 284 286 285 280 276 274 273 275 282 283 280 278 275 276 284 278 273 272 267 263 247 200 214 225
287 302 285 241 242 237 236 255 263 266 276 277 278 283 295 300 296 286 277 272 269 268 267 266 271 274 271 272 279 281 279 276 272 271 264 243 234 231
269 247 222 223 240 261 256 244 257 274 284 283 288 288 291 289 283 287 288 287 282 276 267 264 264 269 270 274 276 276 276 268 261 270 272 264 250 242
293 272 274 263 263 266 269 273 277 273 272 283 289 292 286 283 284 283 279 280 282 286 283 270 264 264 268 270 271 272 272 272 268 267 265 265 261 251
280 273 278 286 285 286 286 284 280 282 285 285 286 288 290 288 284 285 283 280 281 283 283 279 278 276 268 255 256 269 271 271 273 261 261 264 265 258
266 283 289 294 298 295 290 287 286 285 285 285 283 282 283 284 287 288 287 287 286 286 286 280 270 267 276 280 264 254 276 279 277 268 263 265 268 265
280 292 292 297 302 304 301 299 297 293 283 282 282 283 281 281 284 287 287 290 291 291 288 284 275 272 273 283 286 281 252 269 277 276 278 280 285 285
294 299 304 306 305 304 301 298 298 296 297 289 285 284 281 283 287 290 292 291 283 284 287 287 293 280 279 275 273 278 281 239 278 284 284 280 276 267
313 304 301 302 298 301 300 298 295 294 294 289 292 291 289 288 287 288 290 289 285 286 291 293 290 276 264 258 262 269 278 275 229 217 238 273 279 271
309 302 300 299 300 304 304 300 296 295 298 298 295 291 291 291 290 290 290 291 292 293 293 291 287 281 273 262 263 265 267 269 271 277 289 165 220 238